{"data":{"norad_id":61611,"intl_designator":"2024-188T","name":"ONEWEB-0706","alt_names":[],"object_type":"PAYLOAD","status":"ACTIVE","operator":null,"country":"UK","launch_date":"2024-10-20","launch_site_code":"AFWTR","launch_vehicle":null,"mission":null,"orbit_class":"UNKNOWN","rcs_meters":null,"size_class":null,"mass_kg":null,"dimensions":null,"purposes":["comms"],"wikipedia_slug":null,"has_3d_model":false,"image_url":null,"decayed_at":null,"tle_current":{"epoch":"2026-05-25T03:39:13.280256Z","epoch_age_seconds":68867,"freshness":"FRESH","line1":"1 61611U 24188T   26145.15223704  .00000560  00000+0  15670-2 0  9991","line2":"2 61611  87.8858  40.8505 0001446  96.8126 263.3166 13.10375480 80366","mean_motion":13.1037548,"eccentricity":0.0001446,"inclination_deg":87.8858,"raan_deg":40.8505,"arg_perigee_deg":96.8126,"mean_anomaly_deg":263.3166,"bstar":0.001567,"rev_number":8036,"period_min":109.89216617515,"perigee_km":1220.6079168577,"apogee_km":1222.8057917004,"semimajor_km":7599.843854279,"source":"CELESTRAK","updated_at":"2026-05-25T13:38:22.751619Z"}}}